Time,TemperatureF,DewpointF,PressureIn,WindDirection,WindDirectionDegrees,WindSpeedMPH,WindSpeedGustMPH,Humidity,HourlyPrecipIn,Conditions,Clouds,dailyrainin,SoftwareType,DateUTC
2013-01-06 00:03:00,41.2,32.5,30.04,SSW,199,0.0,3.0,71,0.00,,BKN050,0.00,VWS V14.00,2013-01-06 06:03:00,
2013-01-06 00:08:00,41.2,32.5,30.04,SSW,199,0.0,3.0,71,0.00,,BKN050,0.00,VWS V14.00,2013-01-06 06:08:00,
2013-01-06 00:13:00,41.1,32.8,30.04,SSW,199,0.0,3.0,72,0.00,,BKN050,0.00,VWS V14.00,2013-01-06 06:13:00,
2013-01-06 00:18:00,41.1,32.8,30.04,SSW,199,2.0,3.0,72,0.00,,BKN050,0.00,VWS V14.00,2013-01-06 06:18:00,
2013-01-06 00:23:00,41.2,32.9,30.04,SSW,199,0.0,3.0,72,0.00,,BKN050,0.00,VWS V14.00,2013-01-06 06:23:00,
2013-01-06 00:28:00,41.2,32.9,30.03,SSE,168,0.0,6.0,72,0.00,,BKN050,0.00,VWS V14.00,2013-01-06 06:28:00,
2013-01-06 00:33:00,41.3,33.3,30.03,SSE,168,0.0,4.0,73,0.00,,BKN050,0.00,VWS V14.00,2013-01-06 06:33:00,
2013-01-06 00:38:00,41.3,33.3,30.03,SSE,168,1.0,4.0,73,0.00,,BKN050,0.00,VWS V14.00,2013-01-06 06:38:00,
2013-01-06 00:43:00,41.4,33.1,30.03,South,179,0.0,7.0,72,0.00,,BKN050,0.00,VWS V14.00,2013-01-06 06:43:00,
2013-01-06 00:48:00,41.4,33.4,30.03,South,180,0.0,7.0,73,0.00,,BKN050,0.00,VWS V14.00,2013-01-06 06:48:00,
2013-01-06 00:53:00,41.4,33.4,30.03,WSW,256,0.0,7.0,73,0.00,,BKN050,0.00,VWS V14.00,2013-01-06 06:53:00,
2013-01-06 00:58:00,41.4,33.4,30.03,South,188,3.0,7.0,73,0.00,,BKN050,0.00,VWS V14.00,2013-01-06 06:58:00,
2013-01-06 01:03:00,41.5,33.5,30.04,SW,226,4.0,4.0,73,0.00,,BKN050,0.00,VWS V14.00,2013-01-06 07:03:00,
2013-01-06 01:08:00,41.7,33.7,30.03,West,269,1.0,5.0,73,0.00,,BKN050,0.00,VWS V14.00,2013-01-06 07:08:00,
2013-01-06 01:13:00,41.8,33.8,30.03,WSW,251,3.0,6.0,73,0.00,,BKN050,0.00,VWS V14.00,2013-01-06 07:13:00,
2013-01-06 01:18:00,41.9,33.9,30.03,West,260,0.0,6.0,73,0.00,,BKN050,0.00,VWS V14.00,2013-01-06 07:18:00,
2013-01-06 01:23:00,41.9,33.9,30.03,WSW,241,4.0,6.0,73,0.00,,BKN050,0.00,VWS V14.00,2013-01-06 07:23:00,
2013-01-06 01:28:00,42.0,34.0,30.03,SSW,192,2.0,7.0,73,0.00,,BKN050,0.00,VWS V14.00,2013-01-06 07:28:00,
2013-01-06 01:33:00,42.0,33.6,30.04,SSW,203,5.0,9.0,72,0.00,,BKN050,0.00,VWS V14.00,2013-01-06 07:33:00,
2013-01-06 01:38:00,42.0,33.6,30.03,West,273,1.0,9.0,72,0.00,,BKN050,0.00,VWS V14.00,2013-01-06 07:38:00,
2013-01-06 01:43:00,41.9,33.9,30.04,WNW,292,0.0,9.0,73,0.00,,BKN050,0.00,VWS V14.00,2013-01-06 07:43:00,
2013-01-06 01:48:00,41.9,33.9,30.03,WNW,297,0.0,9.0,73,0.00,,BKN050,0.00,VWS V14.00,2013-01-06 07:48:00,
2013-01-06 01:53:00,41.9,33.5,30.04,West,268,8.0,9.0,72,0.00,,BKN050,0.00,VWS V14.00,2013-01-06 07:53:00,
2013-01-06 01:58:00,41.8,33.5,30.04,West,263,1.0,9.0,72,0.00,,BKN050,0.00,VWS V14.00,2013-01-06 07:58:00,
2013-01-06 02:03:00,41.6,33.6,30.04,West,273,2.0,11.0,73,0.00,,BKN044,0.00,VWS V14.00,2013-01-06 08:03:00,
2013-01-06 02:08:00,41.5,33.5,30.04,WNW,282,3.0,11.0,73,0.00,,BKN044,0.00,VWS V14.00,2013-01-06 08:08:00,
2013-01-06 02:13:00,41.3,33.3,30.04,West,266,6.0,11.0,73,0.00,,BKN044,0.00,VWS V14.00,2013-01-06 08:13:00,
2013-01-06 02:18:00,41.2,33.2,30.04,WNW,290,4.0,11.0,73,0.00,,BKN044,0.00,VWS V14.00,2013-01-06 08:18:00,
2013-01-06 02:23:00,41.0,33.0,30.05,West,281,3.0,11.0,73,0.00,,BKN044,0.00,VWS V14.00,2013-01-06 08:23:00,
2013-01-06 02:28:00,40.8,32.8,30.04,SW,217,3.0,11.0,73,0.00,,BKN044,0.00,VWS V14.00,2013-01-06 08:28:00,
2013-01-06 02:33:00,40.7,32.7,30.04,West,274,3.0,10.0,73,0.00,,BKN044,0.00,VWS V14.00,2013-01-06 08:33:00,
2013-01-06 02:38:00,40.5,32.9,30.04,WSW,255,2.0,10.0,74,0.00,,BKN044,0.00,VWS V14.00,2013-01-06 08:38:00,
2013-01-06 02:43:00,40.2,32.2,30.04,West,261,4.0,10.0,73,0.00,,BKN044,0.00,VWS V14.00,2013-01-06 08:43:00,
2013-01-06 02:48:00,40.1,32.5,30.04,West,278,4.0,11.0,74,0.00,,BKN044,0.00,VWS V14.00,2013-01-06 08:48:00,
2013-01-06 02:53:00,39.9,32.3,30.05,West,264,4.0,11.0,74,0.00,,BKN044,0.00,VWS V14.00,2013-01-06 08:53:00,
2013-01-06 02:58:00,39.7,32.1,30.04,West,266,0.0,11.0,74,0.00,,BKN044,0.00,VWS V14.00,2013-01-06 08:58:00,
2013-01-06 03:03:00,39.5,31.9,30.04,WNW,300,3.0,7.0,74,0.00,,BKN034,0.00,VWS V14.00,2013-01-06 09:03:00,
2013-01-06 03:08:00,39.4,31.8,30.04,West,279,2.0,12.0,74,0.00,,BKN034,0.00,VWS V14.00,2013-01-06 09:08:00,
2013-01-06 03:13:00,39.2,32.0,30.04,West,270,3.0,12.0,75,0.00,,BKN034,0.00,VWS V14.00,2013-01-06 09:13:00,
2013-01-06 03:18:00,39.0,31.8,30.04,West,260,2.0,12.0,75,0.00,,BKN034,0.00,VWS V14.00,2013-01-06 09:18:00,
2013-01-06 03:23:00,38.8,31.6,30.04,WNW,282,3.0,12.0,75,0.00,,BKN034,0.00,VWS V14.00,2013-01-06 09:23:00,
2013-01-06 03:28:00,38.7,31.5,30.04,NW,310,1.0,12.0,75,0.00,,BKN034,0.00,VWS V14.00,2013-01-06 09:28:00,
2013-01-06 03:33:00,38.5,31.3,30.04,West,277,0.0,6.0,75,0.00,,BKN034,0.00,VWS V14.00,2013-01-06 09:33:00,
2013-01-06 03:38:00,38.3,31.4,30.04,NW,305,3.0,8.0,76,0.00,,BKN034,0.00,VWS V14.00,2013-01-06 09:38:00,
2013-01-06 03:43:00,38.2,31.3,30.04,West,278,0.0,8.0,76,0.00,,BKN034,0.00,VWS V14.00,2013-01-06 09:43:00,
2013-01-06 03:48:00,38.0,31.1,30.04,NW,309,0.0,8.0,76,0.00,,BKN034,0.00,VWS V14.00,2013-01-06 09:48:00,
2013-01-06 03:53:00,37.8,31.2,30.04,West,274,3.0,9.0,77,0.00,,BKN034,0.00,VWS V14.00,2013-01-06 09:53:00,
2013-01-06 03:58:00,37.7,31.1,30.04,WNW,285,1.0,9.0,77,0.00,,BKN034,0.00,VWS V14.00,2013-01-06 09:58:00,
2013-01-06 04:03:00,37.5,31.0,30.04,WNW,290,0.0,7.0,77,0.00,,FEW034,0.00,VWS V14.00,2013-01-06 10:03:00,
2013-01-06 04:08:00,37.3,31.1,30.03,WNW,294,3.0,9.0,78,0.00,,FEW034,0.00,VWS V14.00,2013-01-06 10:08:00,
2013-01-06 04:13:00,37.2,30.7,30.04,West,278,4.0,9.0,77,0.00,,FEW034,0.00,VWS V14.00,2013-01-06 10:13:00,
2013-01-06 04:18:00,37.0,30.8,30.03,West,279,3.0,9.0,78,0.00,,FEW034,0.00,VWS V14.00,2013-01-06 10:18:00,
2013-01-06 04:23:00,36.8,30.6,30.04,WNW,286,4.0,9.0,78,0.00,,FEW034,0.00,VWS V14.00,2013-01-06 10:23:00,
2013-01-06 04:28:00,36.7,30.8,30.04,NW,310,3.0,9.0,79,0.00,,FEW034,0.00,VWS V14.00,2013-01-06 10:28:00,
2013-01-06 04:33:00,36.6,30.7,30.04,West,281,2.0,6.0,79,0.00,,FEW034,0.00,VWS V14.00,2013-01-06 10:33:00,
2013-01-06 04:38:00,36.4,30.8,30.04,West,281,1.0,6.0,80,0.00,,FEW034,0.00,VWS V14.00,2013-01-06 10:38:00,
2013-01-06 04:43:00,36.3,30.7,30.04,West,276,0.0,6.0,80,0.00,,FEW034,0.00,VWS V14.00,2013-01-06 10:43:00,
2013-01-06 04:48:00,36.1,30.5,30.04,West,264,0.0,6.0,80,0.00,,FEW034,0.00,VWS V14.00,2013-01-06 10:48:00,
2013-01-06 04:53:00,35.9,30.3,30.05,WNW,299,0.0,6.0,80,0.00,,FEW034,0.00,VWS V14.00,2013-01-06 10:53:00,
2013-01-06 04:58:00,35.8,30.2,30.05,West,274,1.0,6.0,80,0.00,,FEW034,0.00,VWS V14.00,2013-01-06 10:58:00,
2013-01-06 05:03:00,35.7,30.1,30.05,West,263,1.0,5.0,80,0.00,,FEW034,0.00,VWS V14.00,2013-01-06 11:03:00,
2013-01-06 05:08:00,35.5,30.0,30.05,WNW,293,3.0,5.0,80,0.00,,FEW034,0.00,VWS V14.00,2013-01-06 11:08:00,
2013-01-06 05:13:00,35.5,30.0,30.05,West,262,0.0,6.0,80,0.00,,FEW034,0.00,VWS V14.00,2013-01-06 11:13:00,
2013-01-06 05:18:00,35.3,29.8,30.05,NW,313,0.0,6.0,80,0.00,,FEW034,0.00,VWS V14.00,2013-01-06 11:18:00,
2013-01-06 05:23:00,35.1,29.6,30.05,WNW,301,5.0,6.0,80,0.00,,FEW034,0.00,VWS V14.00,2013-01-06 11:23:00,
2013-01-06 05:28:00,35.0,29.5,30.05,WNW,289,0.0,8.0,80,0.00,,FEW034,0.00,VWS V14.00,2013-01-06 11:28:00,
2013-01-06 05:33:00,34.9,29.4,30.06,NW,307,3.0,5.0,80,0.00,,FEW034,0.00,VWS V14.00,2013-01-06 11:33:00,
2013-01-06 05:38:00,34.7,29.2,30.06,WNW,283,1.0,6.0,80,0.00,,FEW034,0.00,VWS V14.00,2013-01-06 11:38:00,
2013-01-06 05:43:00,34.6,29.1,30.06,West,281,0.0,6.0,80,0.00,,FEW034,0.00,VWS V14.00,2013-01-06 11:43:00,
2013-01-06 05:48:00,34.5,29.0,30.06,WNW,299,0.0,6.0,80,0.00,,FEW034,0.00,VWS V14.00,2013-01-06 11:48:00,
2013-01-06 05:53:00,34.3,28.8,30.07,West,270,0.0,6.0,80,0.00,,FEW034,0.00,VWS V14.00,2013-01-06 11:53:00,
2013-01-06 05:58:00,34.3,28.8,30.07,NNW,329,0.0,6.0,80,0.00,,FEW034,0.00,VWS V14.00,2013-01-06 11:58:00,
2013-01-06 06:03:00,34.4,28.6,30.07,NW,312,0.0,6.0,79,0.00,,SCT021,0.00,VWS V14.00,2013-01-06 12:03:00,
2013-01-06 06:08:00,34.4,28.6,30.08,WNW,295,3.0,6.0,79,0.00,,SCT021,0.00,VWS V14.00,2013-01-06 12:08:00,
2013-01-06 06:13:00,34.4,28.6,30.08,NNW,348,2.0,6.0,79,0.00,,SCT021,0.00,VWS V14.00,2013-01-06 12:13:00,
2013-01-06 06:18:00,34.4,28.3,30.09,NNW,347,12.0,16.0,78,0.00,,SCT021,0.00,VWS V14.00,2013-01-06 12:18:00,
2013-01-06 06:23:00,34.3,28.2,30.09,NNW,336,6.0,16.0,78,0.00,,SCT021,0.00,VWS V14.00,2013-01-06 12:23:00,
2013-01-06 06:28:00,34.2,28.1,30.09,NNW,336,5.0,16.0,78,0.00,,SCT021,0.00,VWS V14.00,2013-01-06 12:28:00,
2013-01-06 06:33:00,34.1,28.0,30.09,North,350,5.0,11.0,78,0.00,,SCT021,0.00,VWS V14.00,2013-01-06 12:33:00,
2013-01-06 06:38:00,33.8,27.4,30.10,West,262,2.0,11.0,77,0.00,,SCT021,0.00,VWS V14.00,2013-01-06 12:38:00,
2013-01-06 06:43:00,33.4,26.7,30.10,NW,323,2.0,15.0,76,0.00,,SCT021,0.00,VWS V14.00,2013-01-06 12:43:00,
2013-01-06 06:48:00,33.1,26.4,30.10,NW,325,3.0,15.0,76,0.00,,SCT021,0.00,VWS V14.00,2013-01-06 12:48:00,
2013-01-06 06:53:00,32.7,26.0,30.10,NNW,329,4.0,15.0,76,0.00,,SCT021,0.00,VWS V14.00,2013-01-06 12:53:00,
2013-01-06 06:58:00,32.5,25.8,30.10,NW,307,2.0,15.0,76,0.00,,SCT021,0.00,VWS V14.00,2013-01-06 12:58:00,
2013-01-06 07:03:00,32.4,25.7,30.10,NNW,328,5.0,13.0,76,0.00,,SCT021,0.00,VWS V14.00,2013-01-06 13:03:00,
2013-01-06 07:08:00,32.3,25.6,30.11,NNW,342,10.0,13.0,76,0.00,,SCT021,0.00,VWS V14.00,2013-01-06 13:08:00,
2013-01-06 07:13:00,32.2,25.5,30.11,NNW,338,8.0,13.0,76,0.00,,SCT021,0.00,VWS V14.00,2013-01-06 13:13:00,
2013-01-06 07:18:00,32.2,25.5,30.11,NNW,340,5.0,13.0,76,0.00,,SCT021,0.00,VWS V14.00,2013-01-06 13:18:00,
2013-01-06 07:23:00,32.1,25.1,30.12,NNW,328,3.0,13.0,75,0.00,,SCT021,0.00,VWS V14.00,2013-01-06 13:23:00,
2013-01-06 07:28:00,31.9,24.9,30.12,NNW,336,2.0,13.0,75,0.00,,SCT021,0.00,VWS V14.00,2013-01-06 13:28:00,
2013-01-06 07:33:00,31.9,24.9,30.13,NNW,331,3.0,8.0,75,0.00,,SCT020,0.00,VWS V14.00,2013-01-06 13:33:00,
2013-01-06 07:38:00,31.6,24.6,30.13,North,353,7.0,16.0,75,0.00,,SCT020,0.00,VWS V14.00,2013-01-06 13:38:00,
2013-01-06 07:43:00,31.5,24.5,30.13,NW,305,6.0,16.0,75,0.00,,SCT020,0.00,VWS V14.00,2013-01-06 13:43:00,
2013-01-06 07:48:00,31.4,24.4,30.14,NW,307,4.0,16.0,75,0.00,,SCT020,0.00,VWS V14.00,2013-01-06 13:48:00,
2013-01-06 07:53:00,31.4,24.4,30.13,NNW,336,2.0,16.0,75,0.00,,SCT020,0.00,VWS V14.00,2013-01-06 13:53:00,
2013-01-06 07:58:00,31.3,24.3,30.13,NNW,339,4.0,16.0,75,0.00,,SCT020,0.00,VWS V14.00,2013-01-06 13:58:00,
2013-01-06 08:03:00,31.3,24.0,30.14,NNW,336,2.0,10.0,74,0.00,,OVC021,0.00,VWS V14.00,2013-01-06 14:03:00,
2013-01-06 08:08:00,31.2,23.9,30.14,NW,325,4.0,10.0,74,0.00,,OVC021,0.00,VWS V14.00,2013-01-06 14:08:00,
2013-01-06 08:13:00,31.2,23.9,30.15,NNW,345,5.0,10.0,74,0.00,,OVC021,0.00,VWS V14.00,2013-01-06 14:13:00,
2013-01-06 08:18:00,31.3,23.7,30.14,WNW,301,4.0,12.0,73,0.00,,OVC021,0.00,VWS V14.00,2013-01-06 14:18:00,
2013-01-06 08:23:00,31.4,23.8,30.14,NW,313,4.0,12.0,73,0.00,,OVC021,0.00,VWS V14.00,2013-01-06 14:23:00,
2013-01-06 08:28:00,31.5,23.5,30.15,NW,323,1.0,12.0,72,0.00,,OVC021,0.00,VWS V14.00,2013-01-06 14:28:00,
2013-01-06 08:34:00,31.6,23.6,30.15,NNW,340,5.0,9.0,72,0.00,,OVC021,0.00,VWS V14.00,2013-01-06 14:34:00,
2013-01-06 08:39:00,31.7,23.7,30.15,NW,310,1.0,9.0,72,0.00,,OVC021,0.00,VWS V14.00,2013-01-06 14:39:00,
2013-01-06 08:44:00,31.8,23.8,30.16,NNW,346,5.0,9.0,72,0.00,,OVC021,0.00,VWS V14.00,2013-01-06 14:44:00,
2013-01-06 08:49:00,31.9,23.6,30.15,NNW,345,1.0,10.0,71,0.00,,OVC021,0.00,VWS V14.00,2013-01-06 14:49:00,
2013-01-06 08:54:00,31.9,23.6,30.16,NW,319,2.0,12.0,71,0.00,,OVC021,0.00,VWS V14.00,2013-01-06 14:54:00,
2013-01-06 08:59:00,31.9,23.6,30.16,NNW,341,4.0,12.0,71,0.00,,OVC021,0.00,VWS V14.00,2013-01-06 14:59:00,
2013-01-06 09:04:00,32.1,23.8,30.16,WNW,303,1.0,9.0,71,0.00,,OVC023,0.00,VWS V14.00,2013-01-06 15:04:00,
2013-01-06 09:09:00,32.4,24.1,30.16,NNW,340,5.0,10.0,71,0.00,,OVC023,0.00,VWS V14.00,2013-01-06 15:09:00,
2013-01-06 09:14:00,32.5,23.8,30.17,NNW,330,4.0,10.0,70,0.00,,OVC023,0.00,VWS V14.00,2013-01-06 15:14:00,
2013-01-06 09:19:00,32.6,24.2,30.17,NW,325,2.0,10.0,71,0.00,,OVC023,0.00,VWS V14.00,2013-01-06 15:19:00,
2013-01-06 09:24:00,32.6,23.9,30.17,NNW,336,4.0,10.0,70,0.00,,OVC023,0.00,VWS V14.00,2013-01-06 15:24:00,
2013-01-06 09:29:00,32.6,23.9,30.17,NW,323,4.0,10.0,70,0.00,,OVC023,0.00,VWS V14.00,2013-01-06 15:29:00,
2013-01-06 09:34:00,32.6,23.9,30.17,NNW,346,11.0,13.0,70,0.00,,OVC023,0.00,VWS V14.00,2013-01-06 15:34:00,
2013-01-06 09:39:00,32.6,23.9,30.18,NNW,348,7.0,13.0,70,0.00,,OVC023,0.00,VWS V14.00,2013-01-06 15:39:00,
2013-01-06 09:44:00,32.7,24.0,30.18,North,349,5.0,13.0,70,0.00,,OVC023,0.00,VWS V14.00,2013-01-06 15:44:00,
2013-01-06 09:49:00,32.8,24.1,30.18,NW,323,0.0,13.0,70,0.00,,OVC023,0.00,VWS V14.00,2013-01-06 15:49:00,
2013-01-06 09:54:00,33.4,24.7,30.18,NNW,346,6.0,13.0,70,0.00,,OVC023,0.00,VWS V14.00,2013-01-06 15:54:00,
2013-01-06 09:59:00,33.6,24.5,30.18,WNW,293,8.0,13.0,69,0.00,,OVC023,0.00,VWS V14.00,2013-01-06 15:59:00,
2013-01-06 10:04:00,33.7,24.6,30.19,NW,326,6.0,13.0,69,0.00,,OVC028,0.00,VWS V14.00,2013-01-06 16:04:00,
2013-01-06 10:09:00,33.7,24.6,30.19,North,1,4.0,13.0,69,0.00,,OVC028,0.00,VWS V14.00,2013-01-06 16:09:00,
2013-01-06 10:14:00,33.9,24.8,30.19,North,358,6.0,13.0,69,0.00,,OVC028,0.00,VWS V14.00,2013-01-06 16:14:00,
2013-01-06 10:19:00,34.1,25.0,30.19,North,351,2.0,13.0,69,0.00,,OVC028,0.00,VWS V14.00,2013-01-06 16:19:00,
2013-01-06 10:24:00,33.9,24.5,30.20,North,358,5.0,13.0,68,0.00,,OVC028,0.00,VWS V14.00,2013-01-06 16:24:00,
2013-01-06 10:29:00,33.5,24.1,30.20,North,353,6.0,14.0,68,0.00,,OVC028,0.00,VWS V14.00,2013-01-06 16:29:00,
2013-01-06 10:34:00,33.4,24.3,30.20,North,0,0.0,10.0,69,0.00,,OVC028,0.00,VWS V14.00,2013-01-06 16:34:00,
2013-01-06 10:39:00,33.3,24.2,30.20,NNW,332,6.0,15.0,69,0.00,,OVC028,0.00,VWS V14.00,2013-01-06 16:39:00,
2013-01-06 10:44:00,33.4,24.7,30.20,NNW,345,4.0,15.0,70,0.00,,OVC028,0.00,VWS V14.00,2013-01-06 16:44:00,
2013-01-06 10:49:00,33.7,24.6,30.20,NNW,341,14.0,15.0,69,0.00,,OVC028,0.00,VWS V14.00,2013-01-06 16:49:00,
2013-01-06 10:54:00,33.2,24.1,30.20,NNW,340,9.0,17.0,69,0.00,,OVC028,0.00,VWS V14.00,2013-01-06 16:54:00,
2013-01-06 10:59:00,32.8,23.8,30.20,NNW,344,6.0,19.0,69,0.00,,OVC028,0.00,VWS V14.00,2013-01-06 16:59:00,
2013-01-06 11:04:00,32.6,23.6,30.21,NNW,337,6.0,14.0,69,0.00,,OVC024,0.00,VWS V14.00,2013-01-06 17:04:00,
2013-01-06 11:09:00,32.7,23.7,30.20,NNW,334,3.0,14.0,69,0.00,,OVC024,0.00,VWS V14.00,2013-01-06 17:09:00,
2013-01-06 11:14:00,32.7,23.7,30.20,North,0,4.0,14.0,69,0.00,,OVC024,0.00,VWS V14.00,2013-01-06 17:14:00,
2013-01-06 11:19:00,33.0,24.3,30.20,North,5,2.0,14.0,70,0.00,,OVC024,0.00,VWS V14.00,2013-01-06 17:19:00,
2013-01-06 11:24:00,33.5,24.4,30.20,NW,326,6.0,14.0,69,0.00,,OVC024,0.00,VWS V14.00,2013-01-06 17:24:00,
2013-01-06 11:29:00,33.5,24.1,30.19,NNW,337,6.0,14.0,68,0.00,,OVC024,0.00,VWS V14.00,2013-01-06 17:29:00,
2013-01-06 11:34:00,33.5,24.4,30.20,WNW,289,6.0,11.0,69,0.00,,OVC024,0.00,VWS V14.00,2013-01-06 17:34:00,
2013-01-06 11:39:00,33.7,24.6,30.20,NNW,337,2.0,11.0,69,0.00,,OVC024,0.00,VWS V14.00,2013-01-06 17:39:00,
2013-01-06 11:44:00,34.0,24.6,30.20,NW,325,0.0,13.0,68,0.00,,OVC024,0.00,VWS V14.00,2013-01-06 17:44:00,
2013-01-06 11:49:00,34.2,24.4,30.20,NW,325,2.0,13.0,67,0.00,,OVC024,0.00,VWS V14.00,2013-01-06 17:49:00,
2013-01-06 11:54:00,34.2,24.8,30.20,NNW,327,1.0,13.0,68,0.00,,OVC024,0.00,VWS V14.00,2013-01-06 17:54:00,
2013-01-06 11:59:00,34.1,24.3,30.20,NW,309,2.0,14.0,67,0.00,,OVC024,0.00,VWS V14.00,2013-01-06 17:59:00,
2013-01-06 12:04:00,34.7,24.9,30.20,WNW,294,3.0,9.0,67,0.00,,OVC022,0.00,VWS V14.00,2013-01-06 18:04:00,
2013-01-06 12:09:00,34.8,25.0,30.20,North,353,3.0,9.0,67,0.00,,OVC022,0.00,VWS V14.00,2013-01-06 18:09:00,
2013-01-06 12:14:00,34.9,24.7,30.20,NW,316,5.0,9.0,66,0.00,,OVC022,0.00,VWS V14.00,2013-01-06 18:14:00,
2013-01-06 12:19:00,34.9,24.7,30.20,WNW,292,4.0,9.0,66,0.00,,OVC022,0.00,VWS V14.00,2013-01-06 18:19:00,
2013-01-06 12:24:00,34.5,24.7,30.20,North,352,6.0,10.0,67,0.00,,OVC022,0.00,VWS V14.00,2013-01-06 18:24:00,
2013-01-06 12:29:00,34.1,24.3,30.20,NW,308,5.0,13.0,67,0.00,,OVC022,0.00,VWS V14.00,2013-01-06 18:29:00,
2013-01-06 12:34:00,34.2,24.8,30.20,NW,314,5.0,11.0,68,0.00,,OVC022,0.00,VWS V14.00,2013-01-06 18:34:00,
2013-01-06 12:39:00,34.2,24.4,30.20,NNW,341,9.0,11.0,67,0.00,,OVC022,0.00,VWS V14.00,2013-01-06 18:39:00,
2013-01-06 12:44:00,34.2,24.4,30.19,NW,304,7.0,11.0,67,0.00,,OVC022,0.00,VWS V14.00,2013-01-06 18:44:00,
2013-01-06 12:49:00,34.4,24.6,30.19,NNW,341,2.0,11.0,67,0.00,,OVC022,0.00,VWS V14.00,2013-01-06 18:49:00,
2013-01-06 12:54:00,34.7,24.9,30.19,NW,307,5.0,11.0,67,0.00,,OVC022,0.00,VWS V14.00,2013-01-06 18:54:00,
2013-01-06 12:59:00,34.5,24.3,30.20,NNW,344,7.0,11.0,66,0.00,,OVC022,0.00,VWS V14.00,2013-01-06 18:59:00,
2013-01-06 13:04:00,34.3,24.1,30.20,NNW,343,3.0,11.0,66,0.00,,,0.00,VWS V14.00,2013-01-06 19:04:00,
2013-01-06 13:09:00,34.2,24.0,30.19,WNW,301,7.0,11.0,66,0.00,,,0.00,VWS V14.00,2013-01-06 19:09:00,
2013-01-06 13:14:00,34.3,24.1,30.19,NNW,336,4.0,11.0,66,0.00,,,0.00,VWS V14.00,2013-01-06 19:14:00,
2013-01-06 13:19:00,34.7,24.1,30.19,WNW,300,1.0,11.0,65,0.00,,,0.00,VWS V14.00,2013-01-06 19:19:00,
2013-01-06 13:24:00,35.0,24.4,30.19,North,352,3.0,11.0,65,0.00,,,0.00,VWS V14.00,2013-01-06 19:24:00,
2013-01-06 13:29:00,35.3,24.4,30.19,NNW,344,5.0,11.0,64,0.00,,,0.00,VWS V14.00,2013-01-06 19:29:00,
2013-01-06 13:34:00,35.5,24.5,30.20,North,356,9.0,11.0,64,0.00,,,0.00,VWS V14.00,2013-01-06 19:34:00,
2013-01-06 13:39:00,35.5,24.2,30.20,NW,321,1.0,13.0,63,0.00,,,0.00,VWS V14.00,2013-01-06 19:39:00,
2013-01-06 13:44:00,35.6,23.9,30.20,WNW,294,9.0,13.0,62,0.00,,,0.00,VWS V14.00,2013-01-06 19:44:00,
2013-01-06 13:49:00,35.8,24.1,30.20,NNW,346,9.0,13.0,62,0.00,,,0.00,VWS V14.00,2013-01-06 19:49:00,
2013-01-06 13:54:00,35.8,24.1,30.21,NNW,332,3.0,13.0,62,0.00,,,0.00,VWS V14.00,2013-01-06 19:54:00,
2013-01-06 13:59:00,35.8,23.7,30.22,North,352,5.0,13.0,61,0.00,,,0.00,VWS V14.00,2013-01-06 19:59:00,
2013-01-06 14:05:00,35.7,23.6,30.22,NW,323,2.0,12.0,61,0.00,,,0.00,VWS V14.00,2013-01-06 20:05:00,
2013-01-06 14:10:00,35.8,23.7,30.22,NNW,336,5.0,12.0,61,0.00,,,0.00,VWS V14.00,2013-01-06 20:10:00,
2013-01-06 14:11:00,35.9,23.8,30.22,NNW,345,8.0,12.0,61,0.00,,,0.00,VWS V14.00,2013-01-06 20:11:00,
2013-01-06 14:13:00,35.9,23.8,30.22,NNW,335,6.0,12.0,61,0.00,,,0.00,VWS V14.00,2013-01-06 20:13:00,
2013-01-06 14:18:00,36.2,24.1,30.22,NNW,331,4.0,12.0,61,0.00,,,0.00,VWS V14.00,2013-01-06 20:18:00,
2013-01-06 14:23:00,36.2,23.7,30.22,NNW,345,6.0,12.0,60,0.00,,,0.00,VWS V14.00,2013-01-06 20:23:00,
2013-01-06 14:28:00,36.3,23.8,30.22,NW,324,4.0,12.0,60,0.00,,,0.00,VWS V14.00,2013-01-06 20:28:00,
2013-01-06 14:33:00,36.2,23.7,30.23,NNW,341,7.0,10.0,60,0.00,,,0.00,VWS V14.00,2013-01-06 20:33:00,
2013-01-06 14:38:00,36.4,23.9,30.23,NW,325,0.0,10.0,60,0.00,,,0.00,VWS V14.00,2013-01-06 20:38:00,
2013-01-06 14:43:00,36.6,23.6,30.23,North,349,2.0,10.0,59,0.00,,,0.00,VWS V14.00,2013-01-06 20:43:00,
2013-01-06 14:48:00,36.6,23.6,30.24,NNW,347,5.0,10.0,59,0.00,,,0.00,VWS V14.00,2013-01-06 20:48:00,
2013-01-06 14:53:00,36.5,23.5,30.24,North,355,2.0,10.0,59,0.00,,,0.00,VWS V14.00,2013-01-06 20:53:00,
2013-01-06 14:58:00,36.5,23.5,30.24,WNW,287,9.0,10.0,59,0.00,,,0.00,VWS V14.00,2013-01-06 20:58:00,
2013-01-06 15:01:00,36.7,23.7,30.23,NNW,345,3.0,4.0,59,0.00,,FEW025,0.00,VWS V14.00,2013-01-06 21:01:00,
2013-01-06 15:06:00,36.7,23.3,30.24,NW,323,2.0,9.0,58,0.00,,FEW025,0.00,VWS V14.00,2013-01-06 21:06:00,
2013-01-06 15:11:00,36.6,23.6,30.24,NNW,337,0.0,9.0,59,0.00,,FEW025,0.00,VWS V14.00,2013-01-06 21:11:00,
2013-01-06 15:16:00,36.5,22.7,30.24,NNW,348,4.0,13.0,57,0.00,,FEW025,0.00,VWS V14.00,2013-01-06 21:16:00,
2013-01-06 15:21:00,36.5,22.7,30.25,North,354,7.0,13.0,57,0.00,,FEW025,0.00,VWS V14.00,2013-01-06 21:21:00,
2013-01-06 15:26:00,36.5,22.7,30.25,NNW,347,4.0,13.0,57,0.00,,FEW025,0.00,VWS V14.00,2013-01-06 21:26:00,
2013-01-06 15:31:00,36.5,22.7,30.25,NNW,339,0.0,5.0,57,0.00,,FEW025,0.00,VWS V14.00,2013-01-06 21:31:00,
2013-01-06 15:36:00,36.6,22.8,30.25,WNW,285,6.0,6.0,57,0.00,,FEW025,0.00,VWS V14.00,2013-01-06 21:36:00,
2013-01-06 15:41:00,36.7,22.9,30.26,West,276,3.0,6.0,57,0.00,,FEW025,0.00,VWS V14.00,2013-01-06 21:41:00,
2013-01-06 15:46:00,36.9,23.1,30.25,West,273,0.0,6.0,57,0.00,,FEW025,0.00,VWS V14.00,2013-01-06 21:46:00,
2013-01-06 15:51:00,36.8,23.0,30.26,WNW,282,2.0,6.0,57,0.00,,FEW025,0.00,VWS V14.00,2013-01-06 21:51:00,
2013-01-06 15:56:00,36.7,22.9,30.26,West,276,1.0,6.0,57,0.00,,FEW025,0.00,VWS V14.00,2013-01-06 21:56:00,
2013-01-06 16:01:00,36.6,22.4,30.26,NNW,335,3.0,4.0,56,0.00,,FEW025,0.00,VWS V14.00,2013-01-06 22:01:00,
2013-01-06 16:06:00,36.4,22.6,30.26,North,350,4.0,5.0,57,0.00,,FEW025,0.00,VWS V14.00,2013-01-06 22:06:00,
2013-01-06 16:11:00,36.2,22.0,30.26,NNW,348,5.0,7.0,56,0.00,,FEW025,0.00,VWS V14.00,2013-01-06 22:11:00,
2013-01-06 16:16:00,36.0,22.3,30.26,NNW,343,3.0,7.0,57,0.00,,FEW025,0.00,VWS V14.00,2013-01-06 22:16:00,
2013-01-06 16:21:00,35.9,22.2,30.26,WNW,295,0.0,7.0,57,0.00,,FEW025,0.00,VWS V14.00,2013-01-06 22:21:00,
2013-01-06 16:26:00,35.8,22.5,30.26,WNW,286,0.0,7.0,58,0.00,,FEW025,0.00,VWS V14.00,2013-01-06 22:26:00,
2013-01-06 16:31:00,35.7,22.4,30.27,WNW,299,3.0,4.0,58,0.00,,FEW025,0.00,VWS V14.00,2013-01-06 22:31:00,
2013-01-06 16:36:00,35.6,22.3,30.26,WNW,293,3.0,7.0,58,0.00,,FEW025,0.00,VWS V14.00,2013-01-06 22:36:00,
2013-01-06 16:41:00,35.5,22.2,30.27,NNW,345,0.0,7.0,58,0.00,,FEW025,0.00,VWS V14.00,2013-01-06 22:41:00,
2013-01-06 16:46:00,35.4,22.1,30.27,NNW,345,0.0,7.0,58,0.00,,FEW025,0.00,VWS V14.00,2013-01-06 22:46:00,
2013-01-06 16:51:00,35.2,22.3,30.27,NNW,345,0.0,7.0,59,0.00,,FEW025,0.00,VWS V14.00,2013-01-06 22:51:00,
2013-01-06 16:56:00,35.1,22.2,30.27,NNW,345,0.0,7.0,59,0.00,,FEW025,0.00,VWS V14.00,2013-01-06 22:56:00,
2013-01-06 17:01:00,35.0,22.1,30.27,NNW,345,0.0,0.0,59,0.00,,FEW030,0.00,VWS V14.00,2013-01-06 23:01:00,
2013-01-06 17:06:00,34.9,22.0,30.27,NNW,345,0.0,0.0,59,0.00,,FEW030,0.00,VWS V14.00,2013-01-06 23:06:00,
2013-01-06 17:11:00,34.7,22.2,30.28,NNW,345,0.0,0.0,60,0.00,,FEW030,0.00,VWS V14.00,2013-01-06 23:11:00,
2013-01-06 17:16:00,34.5,22.1,30.28,NNW,345,0.0,1.0,60,0.00,,FEW030,0.00,VWS V14.00,2013-01-06 23:16:00,
2013-01-06 17:21:00,34.3,21.9,30.29,NNW,345,0.0,1.0,60,0.00,,FEW030,0.00,VWS V14.00,2013-01-06 23:21:00,
2013-01-06 17:26:00,34.2,22.2,30.28,NNW,345,0.0,1.0,61,0.00,,FEW030,0.00,VWS V14.00,2013-01-06 23:26:00,
2013-01-06 17:31:00,34.1,22.1,30.28,NNW,345,0.0,0.0,61,0.00,,FEW030,0.00,VWS V14.00,2013-01-06 23:31:00,
2013-01-06 17:36:00,33.9,21.9,30.29,NNW,345,0.0,0.0,61,0.00,,FEW030,0.00,VWS V14.00,2013-01-06 23:36:00,
2013-01-06 17:41:00,33.7,21.7,30.29,NNW,345,0.0,1.0,61,0.00,,FEW030,0.00,VWS V14.00,2013-01-06 23:41:00,
2013-01-06 17:46:00,33.6,22.0,30.29,NNW,345,0.0,1.0,62,0.00,,FEW030,0.00,VWS V14.00,2013-01-06 23:46:00,
2013-01-06 17:51:00,33.4,21.8,30.29,NNW,345,0.0,1.0,62,0.00,,FEW030,0.00,VWS V14.00,2013-01-06 23:51:00,
2013-01-06 17:56:00,33.1,21.9,30.29,NNW,345,0.0,1.0,63,0.00,,FEW030,0.00,VWS V14.00,2013-01-06 23:56:00,
2013-01-06 18:01:00,32.7,21.5,30.29,NNW,345,0.0,0.0,63,0.00,,FEW030,0.00,VWS V14.00,2013-01-07 00:01:00,
2013-01-06 18:06:00,32.5,21.3,30.30,NNW,345,0.0,0.0,63,0.00,,FEW030,0.00,VWS V14.00,2013-01-07 00:06:00,
2013-01-06 18:11:00,32.2,21.4,30.30,NNW,345,0.0,0.0,64,0.00,,FEW030,0.00,VWS V14.00,2013-01-07 00:11:00,
2013-01-06 18:16:00,32.0,21.2,30.29,NNW,345,0.0,0.0,64,0.00,,FEW030,0.00,VWS V14.00,2013-01-07 00:16:00,
2013-01-06 18:21:00,31.9,21.1,30.29,NNW,345,0.0,0.0,64,0.00,,FEW030,0.00,VWS V14.00,2013-01-07 00:21:00,
2013-01-06 18:26:00,31.7,21.3,30.30,NNW,345,0.0,0.0,65,0.00,,FEW030,0.00,VWS V14.00,2013-01-07 00:26:00,
2013-01-06 18:31:00,31.6,21.2,30.30,NNW,345,0.0,0.0,65,0.00,,CLR,0.00,VWS V14.00,2013-01-07 00:31:00,
2013-01-06 18:36:00,31.3,20.9,30.30,NNW,345,0.0,0.0,65,0.00,,CLR,0.00,VWS V14.00,2013-01-07 00:36:00,
2013-01-06 18:41:00,31.2,20.8,30.30,NNW,345,0.0,2.0,65,0.00,,CLR,0.00,VWS V14.00,2013-01-07 00:41:00,
2013-01-06 18:46:00,31.1,21.1,30.30,NNW,345,0.0,2.0,66,0.00,,CLR,0.00,VWS V14.00,2013-01-07 00:46:00,
2013-01-06 18:51:00,31.0,21.0,30.30,NNW,345,0.0,2.0,66,0.00,,CLR,0.00,VWS V14.00,2013-01-07 00:51:00,
2013-01-06 18:56:00,30.9,20.9,30.31,NNW,345,0.0,2.0,66,0.00,,CLR,0.00,VWS V14.00,2013-01-07 00:56:00,
2013-01-06 19:01:00,30.7,20.7,30.30,NNW,345,0.0,0.0,66,0.00,,CLR,0.00,VWS V14.00,2013-01-07 01:01:00,
2013-01-06 19:06:00,30.5,20.9,30.30,NNW,345,0.0,0.0,67,0.00,,CLR,0.00,VWS V14.00,2013-01-07 01:06:00,
2013-01-06 19:11:00,30.5,21.2,30.30,NNW,345,0.0,0.0,68,0.00,,CLR,0.00,VWS V14.00,2013-01-07 01:11:00,
2013-01-06 19:16:00,30.6,21.3,30.30,NNW,345,0.0,0.0,68,0.00,,CLR,0.00,VWS V14.00,2013-01-07 01:16:00,
2013-01-06 19:21:00,30.6,21.3,30.30,NNW,345,0.0,2.0,68,0.00,,CLR,0.00,VWS V14.00,2013-01-07 01:21:00,
2013-01-06 19:26:00,30.6,21.3,30.30,NNW,345,0.0,2.0,68,0.00,,CLR,0.00,VWS V14.00,2013-01-07 01:26:00,
2013-01-06 19:31:00,30.5,21.2,30.30,NNW,345,0.0,0.0,68,0.00,,CLR,0.00,VWS V14.00,2013-01-07 01:31:00,
2013-01-06 19:36:00,30.4,21.1,30.30,NNW,345,0.0,0.0,68,0.00,,CLR,0.00,VWS V14.00,2013-01-07 01:36:00,
2013-01-06 19:41:00,30.3,21.4,30.30,NNW,345,0.0,0.0,69,0.00,,CLR,0.00,VWS V14.00,2013-01-07 01:41:00,
2013-01-06 19:46:00,30.8,22.5,30.30,NNW,345,0.0,0.0,71,0.00,,CLR,0.00,VWS V14.00,2013-01-07 01:46:00,
2013-01-06 19:51:00,30.7,22.8,30.30,NNW,345,0.0,0.0,72,0.00,,CLR,0.00,VWS V14.00,2013-01-07 01:51:00,
2013-01-06 19:56:00,30.5,22.6,30.30,NNW,345,0.0,0.0,72,0.00,,CLR,0.00,VWS V14.00,2013-01-07 01:56:00,
2013-01-06 20:01:00,30.0,21.8,30.30,NNW,345,0.0,0.0,71,0.00,,CLR,0.00,VWS V14.00,2013-01-07 02:01:00,
2013-01-06 20:06:00,29.5,21.3,30.30,NNW,345,0.0,0.0,71,0.00,,CLR,0.00,VWS V14.00,2013-01-07 02:06:00,
2013-01-06 20:11:00,29.2,21.0,30.31,NNW,345,0.0,0.0,71,0.00,,CLR,0.00,VWS V14.00,2013-01-07 02:11:00,
2013-01-06 20:16:00,28.8,20.6,30.30,NNW,345,0.0,0.0,71,0.00,,CLR,0.00,VWS V14.00,2013-01-07 02:16:00,
2013-01-06 20:21:00,28.5,20.6,30.31,NNW,345,0.0,0.0,72,0.00,,CLR,0.00,VWS V14.00,2013-01-07 02:21:00,
2013-01-06 20:26:00,28.2,20.4,30.30,NNW,345,0.0,0.0,72,0.00,,CLR,0.00,VWS V14.00,2013-01-07 02:26:00,
2013-01-06 20:31:00,27.9,20.1,30.30,NNW,345,0.0,0.0,72,0.00,,CLR,0.00,VWS V14.00,2013-01-07 02:31:00,
2013-01-06 20:36:00,27.7,19.9,30.30,NNW,345,0.0,0.0,72,0.00,,CLR,0.00,VWS V14.00,2013-01-07 02:36:00,
2013-01-06 20:41:00,27.6,19.8,30.31,NNW,345,0.0,0.0,72,0.00,,CLR,0.00,VWS V14.00,2013-01-07 02:41:00,
2013-01-06 20:46:00,27.7,20.2,30.31,NNW,345,0.0,0.0,73,0.00,,CLR,0.00,VWS V14.00,2013-01-07 02:46:00,
2013-01-06 20:51:00,27.7,20.2,30.30,NNW,345,0.0,0.0,73,0.00,,CLR,0.00,VWS V14.00,2013-01-07 02:51:00,
2013-01-06 20:56:00,27.6,20.1,30.30,NNW,345,0.0,0.0,73,0.00,,CLR,0.00,VWS V14.00,2013-01-07 02:56:00,
2013-01-06 21:01:00,27.4,20.2,30.30,NNW,345,0.0,0.0,74,0.00,,CLR,0.00,VWS V14.00,2013-01-07 03:01:00,
2013-01-06 21:06:00,27.3,20.1,30.30,NNW,345,0.0,0.0,74,0.00,,CLR,0.00,VWS V14.00,2013-01-07 03:06:00,
2013-01-06 21:11:00,27.0,19.8,30.30,NNW,345,0.0,0.0,74,0.00,,CLR,0.00,VWS V14.00,2013-01-07 03:11:00,
2013-01-06 21:16:00,26.8,19.6,30.30,NNW,345,0.0,0.0,74,0.00,,CLR,0.00,VWS V14.00,2013-01-07 03:16:00,
2013-01-06 21:21:00,26.7,19.9,30.30,NNW,345,0.0,0.0,75,0.00,,CLR,0.00,VWS V14.00,2013-01-07 03:21:00,
2013-01-06 21:26:00,26.5,20.0,30.31,NNW,345,0.0,0.0,76,0.00,,CLR,0.00,VWS V14.00,2013-01-07 03:26:00,
2013-01-06 21:31:00,26.4,19.9,30.30,NNW,345,0.0,0.0,76,0.00,,CLR,0.00,VWS V14.00,2013-01-07 03:31:00,
2013-01-06 21:36:00,26.2,19.7,30.31,NNW,345,0.0,0.0,76,0.00,,CLR,0.00,VWS V14.00,2013-01-07 03:36:00,
2013-01-06 21:41:00,26.1,19.9,30.31,NNW,345,0.0,0.0,77,0.00,,CLR,0.00,VWS V14.00,2013-01-07 03:41:00,
2013-01-06 21:46:00,26.2,20.0,30.31,NNW,345,0.0,0.0,77,0.00,,CLR,0.00,VWS V14.00,2013-01-07 03:46:00,
2013-01-06 21:51:00,26.1,19.9,30.31,NNW,345,0.0,0.0,77,0.00,,CLR,0.00,VWS V14.00,2013-01-07 03:51:00,
2013-01-06 21:56:00,25.9,20.0,30.31,NNW,345,0.0,0.0,78,0.00,,CLR,0.00,VWS V14.00,2013-01-07 03:56:00,
2013-01-06 22:01:00,25.7,19.8,30.31,NNW,345,0.0,0.0,78,0.00,,CLR,0.00,VWS V14.00,2013-01-07 04:01:00,
2013-01-06 22:06:00,25.6,19.7,30.31,NNW,345,0.0,0.0,78,0.00,,CLR,0.00,VWS V14.00,2013-01-07 04:06:00,
2013-01-06 22:11:00,25.4,19.5,30.31,NNW,345,0.0,0.0,78,0.00,,CLR,0.00,VWS V14.00,2013-01-07 04:11:00,
2013-01-06 22:16:00,25.3,19.4,30.31,NNW,345,0.0,0.0,78,0.00,,CLR,0.00,VWS V14.00,2013-01-07 04:16:00,
2013-01-06 22:21:00,25.2,19.6,30.30,NNW,345,0.0,0.0,79,0.00,,CLR,0.00,VWS V14.00,2013-01-07 04:21:00,
2013-01-06 22:26:00,25.1,19.5,30.31,NNW,345,0.0,0.0,79,0.00,,CLR,0.00,VWS V14.00,2013-01-07 04:26:00,
2013-01-06 22:31:00,24.9,19.6,30.31,NNW,345,0.0,0.0,80,0.00,,CLR,0.00,VWS V14.00,2013-01-07 04:31:00,
2013-01-06 22:36:00,24.7,19.4,30.31,NNW,345,0.0,0.0,80,0.00,,CLR,0.00,VWS V14.00,2013-01-07 04:36:00,
2013-01-06 22:41:00,24.7,19.4,30.31,NNW,345,0.0,0.0,80,0.00,,CLR,0.00,VWS V14.00,2013-01-07 04:41:00,
2013-01-06 22:46:00,24.6,19.3,30.32,NNW,345,0.0,0.0,80,0.00,,CLR,0.00,VWS V14.00,2013-01-07 04:46:00,
2013-01-06 22:51:00,24.5,19.2,30.32,NNW,345,0.0,0.0,80,0.00,,CLR,0.00,VWS V14.00,2013-01-07 04:51:00,
2013-01-06 22:56:00,24.5,19.2,30.32,NNW,345,0.0,0.0,80,0.00,,CLR,0.00,VWS V14.00,2013-01-07 04:56:00,
2013-01-06 23:00:00,24.5,19.5,30.32,NNW,345,0.0,0.0,81,0.00,,CLR,0.00,VWS V14.00,2013-01-07 05:00:00,
2013-01-06 23:05:00,24.5,19.5,30.32,NNW,345,0.0,0.0,81,0.00,,CLR,0.00,VWS V14.00,2013-01-07 05:05:00,
2013-01-06 23:10:00,24.5,19.5,30.32,NNW,345,0.0,0.0,81,0.00,,CLR,0.00,VWS V14.00,2013-01-07 05:10:00,
2013-01-06 23:15:00,24.4,19.4,30.33,NNW,345,0.0,0.0,81,0.00,,CLR,0.00,VWS V14.00,2013-01-07 05:15:00,
2013-01-06 23:20:00,24.3,19.3,30.32,NNW,345,0.0,0.0,81,0.00,,CLR,0.00,VWS V14.00,2013-01-07 05:20:00,
2013-01-06 23:25:00,24.2,19.2,30.32,NNW,345,0.0,0.0,81,0.00,,CLR,0.00,VWS V14.00,2013-01-07 05:25:00,
2013-01-06 23:30:00,24.4,19.4,30.32,NNW,345,0.0,0.0,81,0.00,,CLR,0.00,VWS V14.00,2013-01-07 05:30:00,
2013-01-06 23:35:00,24.4,19.4,30.32,NNW,345,0.0,0.0,81,0.00,,CLR,0.00,VWS V14.00,2013-01-07 05:35:00,
2013-01-06 23:40:00,24.3,19.3,30.33,NNW,345,0.0,0.0,81,0.00,,CLR,0.00,VWS V14.00,2013-01-07 05:40:00,
2013-01-06 23:45:00,24.1,19.1,30.32,NNW,345,0.0,0.0,81,0.00,,CLR,0.00,VWS V14.00,2013-01-07 05:45:00,
2013-01-06 23:50:00,23.9,18.9,30.32,NNW,345,0.0,0.0,81,0.00,,CLR,0.00,VWS V14.00,2013-01-07 05:50:00,
2013-01-06 23:55:00,23.8,19.1,30.32,NNW,345,0.0,0.0,82,0.00,,CLR,0.00,VWS V14.00,2013-01-07 05:55:00,